| time (UTC) | temp F | wind direction | speed MPH | gust MPH | rain 1hr in | rain 24hr in | rain mn in | humidity % | barometer mb |
| 20260510094252 | 72 | 115 | 7.0 | 9.0 | 0.00 | 0.00 | 0.00 | 84 | 1010.1 |
| 20260510093747 | 71 | 119 | 7.0 | 8.0 | 0.00 | 0.00 | 0.00 | 84 | 1010.1 |
| 20260510093245 | 71 | 143 | 3.0 | 5.0 | 0.00 | 0.00 | 0.00 | 84 | 1010.3 |
| 20260510092741 | 71 | 141 | 3.0 | 5.0 | 0.00 | 0.00 | 0.00 | 84 | 1010.1 |
| 20260510092237 | 71 | 121 | 4.0 | 7.0 | 0.00 | 0.00 | 0.00 | 84 | 1010.4 |
| 20260510091733 | 71 | 72 | 5.0 | 7.0 | 0.00 | 0.00 | 0.00 | 83 | 1010.0 |
| 20260510091230 | 71 | 103 | 3.0 | 5.0 | 0.00 | 0.00 | 0.00 | 83 | 1009.9 |
| 20260510090726 | 71 | 105 | 3.0 | 3.0 | 0.00 | 0.00 | 0.00 | 83 | 1009.6 |
| 20260510090224 | 71 | 113 | 3.0 | 5.0 | 0.00 | 0.00 | 0.00 | 83 | 1009.8 |
| 20260510085719 | 71 | 80 | 6.0 | 7.0 | 0.00 | 0.00 | 0.00 | 83 | 1010.0 |
| 20260510085214 | 71 | 64 | 7.0 | 9.0 | 0.00 | 0.00 | 0.00 | 82 | 1009.6 |
| 20260510084709 | 71 | 81 | 5.0 | 9.0 | 0.00 | 0.00 | 0.00 | 82 | 1009.5 |
| 20260510084207 | 71 | 73 | 5.0 | 6.0 | 0.00 | 0.00 | 0.00 | 82 | 1009.9 |
| 20260510083704 | 71 | 72 | 10.0 | 11.0 | 0.00 | 0.00 | 0.00 | 81 | 1010.1 |
| 20260510083201 | 71 | 46 | 3.0 | 5.0 | 0.00 | 0.00 | 0.00 | 81 | 1010.3 |
| 20260510082656 | 71 | 74 | 9.0 | 13.0 | 0.00 | 0.00 | 0.00 | 82 | 1010.1 |
| 20260510082152 | 71 | 64 | 10.0 | 13.0 | 0.00 | 0.00 | 0.00 | 81 | 1010.1 |
| 20260510081647 | 71 | 76 | 8.0 | 10.0 | 0.00 | 0.00 | 0.00 | 80 | 1009.6 |
| 20260510081143 | 70 | 84 | 4.0 | 5.0 | 0.00 | 0.00 | 0.00 | 82 | 1009.4 |
| 20260510080642 | 70 | 83 | 0.0 | 1.0 | 0.00 | 0.00 | 0.00 | 82 | 1009.2 |
| 20260510080140 | 69 | 65 | 0.0 | 0.0 | 0.00 | 0.00 | 0.00 | 82 | 1009.0 |
| 20260510075637 | 68 | 74 | 0.0 | 0.0 | 0.00 | 0.00 | 0.00 | 83 | 1009.2 |
| 20260510075134 | 69 | 77 | 0.0 | 0.0 | 0.00 | 0.00 | 0.00 | 83 | 1009.0 |
| 20260510074631 | 69 | 92 | 0.0 | 0.0 | 0.00 | 0.00 | 0.00 | 83 | 1009.1 |
| 20260510074126 | 68 | 103 | 0.0 | 0.0 | 0.00 | 0.00 | 0.00 | 83 | 1008.7 |
| 20260510073622 | 69 | 97 | 0.0 | 0.0 | 0.00 | 0.00 | 0.00 | 82 | 1009.0 |
| 20260510073120 | 69 | 83 | 0.0 | 0.0 | 0.00 | 0.00 | 0.00 | 81 | 1008.7 |
| 20260510072616 | 70 | 57 | 0.0 | 0.0 | 0.00 | 0.00 | 0.00 | 80 | 1008.7 |
| 20260510072113 | 70 | 48 | 0.0 | 0.0 | 0.00 | 0.00 | 0.00 | 79 | 1008.8 |
| 20260510071608 | 71 | 84 | 0.0 | 0.0 | 0.00 | 0.00 | 0.00 | 78 | 1008.9 |
| 20260510071106 | 71 | 121 | 0.0 | 0.0 | 0.00 | 0.00 | 0.00 | 78 | 1008.9 |
| 20260510070603 | 71 | 128 | 0.0 | 0.0 | 0.00 | 0.00 | 0.00 | 77 | 1008.9 |
| 20260510065556 | 72 | 122 | 0.0 | 0.0 | 0.00 | 0.00 | 0.00 | 76 | 1008.6 |
| 20260510065052 | 73 | 104 | 0.0 | 0.0 | 0.00 | 0.00 | 0.00 | 75 | 1008.7 |
| 20260510064549 | 73 | 98 | 0.0 | 0.0 | 0.00 | 0.00 | 0.00 | 74 | 1008.4 |
| 20260510064045 | 73 | 107 | 0.0 | 0.0 | 0.00 | 0.00 | 0.00 | 74 | 1008.4 |
| 20260510063543 | 73 | 127 | 0.0 | 0.0 | 0.00 | 0.00 | 0.00 | 73 | 1008.5 |
| 20260510063040 | 73 | 118 | 0.0 | 0.0 | 0.00 | 0.00 | 0.00 | 73 | 1008.6 |
| 20260510062535 | 74 | 157 | 0.0 | 0.0 | 0.00 | 0.00 | 0.00 | 72 | 1008.5 |
| 20260510062031 | 74 | 151 | 0.0 | 0.0 | 0.00 | 0.00 | 0.00 | 71 | 1008.4 |
| 20260510061527 | 74 | 149 | 0.0 | 0.0 | 0.00 | 0.00 | 0.00 | 70 | 1008.5 |
| 20260510061024 | 74 | 150 | 0.0 | 0.0 | 0.00 | 0.00 | 0.00 | 70 | 1008.5 |
| 20260510060521 | 74 | 169 | 0.0 | 1.0 | 0.00 | 0.00 | 0.00 | 69 | 1008.1 |
| 20260510060017 | 74 | 135 | 0.0 | 0.0 | 0.00 | 0.00 | 0.00 | 69 | 1008.1 |
| 20260510055513 | 74 | 150 | 0.0 | 0.0 | 0.00 | 0.00 | 0.00 | 69 | 1008.1 |
| 20260510055011 | 73 | 143 | 0.0 | 0.0 | 0.00 | 0.00 | 0.00 | 69 | 1008.1 |
| 20260510054507 | 73 | 152 | 0.0 | 0.0 | 0.00 | 0.00 | 0.00 | 69 | 1008.1 |
| 20260510054002 | 73 | 142 | 0.0 | 0.0 | 0.00 | 0.00 | 0.00 | 69 | 1008.1 |
| 20260510053457 | 73 | 144 | 0.0 | 0.0 | 0.00 | 0.00 | 0.00 | 69 | 1008.0 |
| 20260510052953 | 74 | 150 | 0.0 | 0.0 | 0.00 | 0.00 | 0.00 | 68 | 1008.0 |
| 20260510052450 | 74 | 160 | 0.0 | 0.0 | 0.00 | 0.00 | 0.00 | 68 | 1008.1 |
| 20260510051946 | 75 | 157 | 0.0 | 1.0 | 0.00 | 0.00 | 0.00 | 67 | 1007.9 |
| 20260510051442 | 74 | 170 | 0.0 | 1.0 | 0.00 | 0.00 | 0.00 | 66 | 1008.0 |
| 20260510050938 | 74 | 147 | 0.0 | 0.0 | 0.00 | 0.00 | 0.00 | 67 | 1007.8 |
| 20260510050435 | 74 | 176 | 3.0 | 7.0 | 0.00 | 0.00 | 0.00 | 66 | 1008.0 |
| 20260510045933 | 74 | 151 | 2.0 | 5.0 | 0.00 | 0.00 | 0.00 | 67 | 1007.9 |
| 20260510045430 | 74 | 147 | 3.0 | 6.0 | 0.00 | 0.00 | 0.00 | 67 | 1007.7 |
| 20260510044927 | 74 | 145 | 0.0 | 0.0 | 0.00 | 0.00 | 0.00 | 68 | 1007.8 |
| 20260510044423 | 74 | 150 | 1.0 | 3.0 | 0.00 | 0.00 | 0.00 | 68 | 1007.8 |
| 20260510043920 | 74 | 167 | 0.0 | 0.0 | 0.00 | 0.00 | 0.00 | 68 | 1007.8 |
| 20260510043416 | 74 | 166 | 0.0 | 0.0 | 0.00 | 0.00 | 0.00 | 68 | 1007.8 |
| 20260510042914 | 74 | 158 | 0.0 | 0.0 | 0.00 | 0.00 | 0.00 | 68 | 1007.9 |
| 20260510042410 | 74 | 155 | 0.0 | 0.0 | 0.00 | 0.00 | 0.00 | 68 | 1007.8 |
| 20260510041906 | 75 | 150 | 0.0 | 0.0 | 0.00 | 0.00 | 0.00 | 68 | 1007.4 |
| 20260510041403 | 75 | 176 | 0.0 | 0.0 | 0.00 | 0.00 | 0.00 | 68 | 1007.9 |
| 20260510040901 | 75 | 178 | 3.0 | 3.0 | 0.00 | 0.00 | 0.00 | 68 | 1007.6 |
| 20260510040358 | 75 | 154 | 0.0 | 2.0 | 0.00 | 0.00 | 0.00 | 68 | 1007.6 |
| 20260510035853 | 75 | 169 | 5.0 | 6.0 | 0.00 | 0.00 | 0.00 | 69 | 1007.8 |
| 20260510035349 | 75 | 171 | 0.0 | 0.0 | 0.00 | 0.00 | 0.00 | 69 | 1007.8 |
| 20260510034844 | 75 | 136 | 0.0 | 0.0 | 0.00 | 0.00 | 0.00 | 69 | 1007.7 |
| 20260510034343 | 75 | 161 | 0.0 | 0.0 | 0.00 | 0.00 | 0.00 | 69 | 1007.9 |
| 20260510033839 | 76 | 161 | 2.0 | 5.0 | 0.00 | 0.00 | 0.00 | 68 | 1007.7 |
| 20260510033336 | 76 | 137 | 0.0 | 1.0 | 0.00 | 0.00 | 0.00 | 68 | 1007.8 |
| 20260510032832 | 75 | 168 | 0.0 | 0.0 | 0.00 | 0.00 | 0.00 | 69 | 1007.8 |
| 20260510032329 | 75 | 161 | 0.0 | 1.0 | 0.00 | 0.00 | 0.00 | 69 | 1007.9 |
| 20260510031825 | 75 | 158 | 1.0 | 3.0 | 0.00 | 0.00 | 0.00 | 69 | 1007.7 |
| 20260510031321 | 76 | 169 | 2.0 | 5.0 | 0.00 | 0.00 | 0.00 | 68 | 1007.8 |
| 20260510030821 | 76 | 152 | 0.0 | 0.0 | 0.00 | 0.00 | 0.00 | 67 | 1007.8 |
| 20260510030317 | 76 | 172 | 0.0 | 2.0 | 0.00 | 0.00 | 0.00 | 67 | 1007.7 |
| 20260510025815 | 76 | 148 | 0.0 | 0.0 | 0.00 | 0.00 | 0.00 | 68 | 1007.8 |
| 20260510025312 | 76 | 162 | 0.0 | 0.0 | 0.00 | 0.00 | 0.00 | 68 | 1008.0 |
| 20260510024809 | 76 | 163 | 0.0 | 0.0 | 0.00 | 0.00 | 0.00 | 68 | 1007.8 |
| 20260510024306 | 76 | 142 | 0.0 | 0.0 | 0.00 | 0.00 | 0.00 | 67 | 1007.8 |
| 20260510023802 | 76 | 146 | 5.0 | 7.0 | 0.00 | 0.00 | 0.00 | 67 | 1007.6 |
| 20260510023258 | 77 | 151 | 6.0 | 8.0 | 0.00 | 0.00 | 0.00 | 66 | 1007.7 |
| 20260510022756 | 77 | 153 | 5.0 | 5.0 | 0.00 | 0.00 | 0.00 | 65 | 1007.6 |
| 20260510022255 | 77 | 158 | 3.0 | 6.0 | 0.00 | 0.00 | 0.00 | 65 | 1007.6 |
| 20260510021754 | 77 | 139 | 4.0 | 5.0 | 0.00 | 0.00 | 0.00 | 65 | 1007.7 |
| 20260510021253 | 78 | 174 | 4.0 | 5.0 | 0.00 | 0.00 | 0.00 | 64 | 1007.6 |
| 20260510020749 | 78 | 166 | 4.0 | 5.0 | 0.00 | 0.00 | 0.00 | 64 | 1007.7 |
| 20260510020248 | 78 | 158 | 0.0 | 0.0 | 0.00 | 0.00 | 0.00 | 64 | 1007.5 |
| 20260510015745 | 78 | 148 | 0.0 | 1.0 | 0.00 | 0.00 | 0.00 | 64 | 1007.5 |
| 20260510015241 | 78 | 141 | 3.0 | 3.0 | 0.00 | 0.00 | 0.00 | 64 | 1007.4 |
| 20260510014736 | 78 | 159 | 2.0 | 3.0 | 0.00 | 0.00 | 0.00 | 64 | 1007.1 |
| 20260510014234 | 79 | 168 | 3.0 | 5.0 | 0.00 | 0.00 | 0.00 | 63 | 1006.9 |
| 20260510013729 | 79 | 152 | 3.0 | 3.0 | 0.00 | 0.00 | 0.00 | 63 | 1007.1 |
| 20260510013225 | 79 | 130 | 0.0 | 0.0 | 0.00 | 0.00 | 0.00 | 65 | 1007.1 |
| 20260510012725 | 80 | 158 | 2.0 | 2.0 | 0.00 | 0.00 | 0.00 | 63 | 1007.1 |
| 20260510012220 | 80 | 140 | 1.0 | 1.0 | 0.00 | 0.00 | 0.00 | 63 | 1007.0 |
| 20260510011715 | 80 | 157 | 3.0 | 3.0 | 0.00 | 0.00 | 0.00 | 62 | 1006.9 |
| 20260510011211 | 82 | 143 | 2.0 | 2.0 | 0.00 | 0.00 | 0.00 | 60 | 1006.8 |
| 20260510010707 | 82 | 138 | 1.0 | 2.0 | 0.00 | 0.00 | 0.00 | 59 | 1006.7 |
| 20260510010204 | 83 | 146 | 1.0 | 1.0 | 0.00 | 0.00 | 0.00 | 58 | 1006.7 |
| 20260510005701 | 84 | 150 | 2.0 | 2.0 | 0.00 | 0.00 | 0.00 | 57 | 1006.9 |
| 20260510005157 | 84 | 150 | 2.0 | 2.0 | 0.00 | 0.00 | 0.00 | 56 | 1006.8 |
| 20260510004655 | 85 | 149 | 2.0 | 2.0 | 0.00 | 0.00 | 0.00 | 54 | 1006.5 |
| 20260510004153 | 86 | 148 | 3.0 | 3.0 | 0.00 | 0.00 | 0.00 | 53 | 1006.6 |
| 20260510003650 | 86 | 148 | 3.0 | 3.0 | 0.00 | 0.00 | 0.00 | 52 | 1006.8 |
| 20260510003146 | 87 | 122 | 1.0 | 1.0 | 0.00 | 0.00 | 0.00 | 52 | 1006.6 |
| 20260510002646 | 87 | 149 | 3.0 | 3.0 | 0.00 | 0.00 | 0.00 | 51 | 1006.7 |
| 20260510002143 | 88 | 148 | 1.0 | 2.0 | 0.00 | 0.00 | 0.00 | 51 | 1006.5 |
| 20260510001640 | 88 | 141 | 3.0 | 3.0 | 0.00 | 0.00 | 0.00 | 50 | 1006.7 |
| 20260510001139 | 88 | 134 | 3.0 | 3.0 | 0.00 | 0.00 | 0.00 | 49 | 1006.6 |
| 20260510000638 | 88 | 140 | 3.0 | 3.0 | 0.00 | 0.00 | 0.00 | 50 | 1006.7 |
| 20260510000136 | 89 | 130 | 5.0 | 6.0 | 0.00 | 0.00 | 0.00 | 47 | 1006.7 |
| 20260509235632 | 89 | 125 | 2.0 | 2.0 | 0.00 | 0.00 | 0.00 | 48 | 1006.6 |
| 20260509235129 | 89 | 134 | 2.0 | 2.0 | 0.00 | 0.00 | 0.00 | 47 | 1006.9 |
| 20260509234625 | 89 | 133 | 3.0 | 5.0 | 0.00 | 0.00 | 0.00 | 47 | 1006.6 |
| 20260509234123 | 89 | 169 | 3.0 | 3.0 | 0.00 | 0.00 | 0.00 | 46 | 1006.6 |
| 20260509233620 | 90 | 153 | 7.0 | 8.0 | 0.00 | 0.00 | 0.00 | 48 | 1007.0 |
| 20260509233117 | 89 | 159 | 2.0 | 2.0 | 0.00 | 0.00 | 0.00 | 47 | 1006.8 |
| 20260509232613 | 90 | 154 | 4.0 | 6.0 | 0.00 | 0.00 | 0.00 | 46 | 1006.8 |
| 20260509232111 | 90 | 172 | 3.0 | 3.0 | 0.00 | 0.00 | 0.00 | 47 | 1006.9 |
| 20260509231607 | 90 | 123 | 6.0 | 7.0 | 0.00 | 0.00 | 0.00 | 45 | 1006.7 |
| 20260509231105 | 91 | 184 | 6.0 | 7.0 | 0.00 | 0.00 | 0.00 | 45 | 1006.9 |
| 20260509230601 | 90 | 160 | 3.0 | 3.0 | 0.00 | 0.00 | 0.00 | 47 | 1007.1 |
| 20260509230059 | 90 | 143 | 3.0 | 5.0 | 0.00 | 0.00 | 0.00 | 47 | 1007.1 |
| 20260509225554 | 91 | 163 | 5.0 | 7.0 | 0.00 | 0.00 | 0.00 | 46 | 1007.3 |
| 20260509225050 | 91 | 127 | 0.0 | 0.0 | 0.00 | 0.00 | 0.00 | 45 | 1007.1 |
| 20260509224546 | 92 | 156 | 2.0 | 3.0 | 0.00 | 0.00 | 0.00 | 44 | 1007.3 |
| 20260509224042 | 91 | 133 | 5.0 | 7.0 | 0.00 | 0.00 | 0.00 | 45 | 1007.2 |
| 20260509223539 | 91 | 158 | 4.0 | 5.0 | 0.00 | 0.00 | 0.00 | 47 | 1007.1 |
| 20260509223037 | 92 | 167 | 7.0 | 9.0 | 0.00 | 0.00 | 0.00 | 45 | 1007.0 |
| 20260509222533 | 92 | 165 | 3.0 | 5.0 | 0.00 | 0.00 | 0.00 | 44 | 1007.2 |
| 20260509222029 | 92 | 148 | 4.0 | 5.0 | 0.00 | 0.00 | 0.00 | 47 | 1007.3 |
| 20260509221525 | 92 | 161 | 1.0 | 2.0 | 0.00 | 0.00 | 0.00 | 46 | 1007.0 |
| 20260509221021 | 92 | 125 | 0.0 | 0.0 | 0.00 | 0.00 | 0.00 | 46 | 1007.2 |
| 20260509220517 | 93 | 145 | 0.0 | 0.0 | 0.00 | 0.00 | 0.00 | 44 | 1007.3 |
| 20260509220014 | 91 | 165 | 2.0 | 3.0 | 0.00 | 0.00 | 0.00 | 47 | 1007.3 |
| 20260509215509 | 92 | 157 | 6.0 | 8.0 | 0.00 | 0.00 | 0.00 | 46 | 1007.4 |
| 20260509215007 | 92 | 113 | 3.0 | 3.0 | 0.00 | 0.00 | 0.00 | 44 | 1007.6 |
| 20260509214504 | 92 | 156 | 3.0 | 5.0 | 0.00 | 0.00 | 0.00 | 45 | 1007.4 |
| 20260509214000 | 91 | 115 | 2.0 | 2.0 | 0.00 | 0.00 | 0.00 | 47 | 1007.5 |
| 20260509213456 | 91 | 195 | 2.0 | 3.0 | 0.00 | 0.00 | 0.00 | 46 | 1007.5 |
| 20260509212954 | 91 | 150 | 2.0 | 2.0 | 0.00 | 0.00 | 0.00 | 46 | 1007.6 |
| 20260509212451 | 90 | 46 | 1.0 | 1.0 | 0.00 | 0.00 | 0.00 | 48 | 1007.6 |
| 20260509211947 | 87 | 28 | 4.0 | 6.0 | 0.00 | 0.00 | 0.00 | 48 | 1007.7 |
| 20260509211443 | 88 | 282 | 6.0 | 7.0 | 0.00 | 0.00 | 0.00 | 49 | 1007.6 |
| 20260509210940 | 89 | 53 | 1.0 | 1.0 | 0.00 | 0.00 | 0.00 | 49 | 1007.8 |
| 20260509210437 | 88 | 293 | 4.0 | 5.0 | 0.00 | 0.00 | 0.00 | 49 | 1007.9 |
| 20260509205932 | 89 | 301 | 3.0 | 3.0 | 0.00 | 0.00 | 0.00 | 47 | 1008.0 |
| 20260509205427 | 88 | 55 | 3.0 | 5.0 | 0.00 | 0.00 | 0.00 | 47 | 1007.8 |
| 20260509204923 | 87 | 358 | 3.0 | 3.0 | 0.00 | 0.00 | 0.00 | 51 | 1008.3 |
| 20260509204419 | 86 | 326 | 3.0 | 5.0 | 0.00 | 0.00 | 0.00 | 48 | 1008.3 |
| 20260509203916 | 86 | 327 | 4.0 | 5.0 | 0.00 | 0.00 | 0.00 | 49 | 1008.4 |
| 20260509203412 | 87 | 288 | 3.0 | 6.0 | 0.00 | 0.00 | 0.00 | 49 | 1008.3 |
| 20260509202910 | 86 | 305 | 4.0 | 5.0 | 0.00 | 0.00 | 0.00 | 49 | 1008.7 |
| 20260509202405 | 86 | 304 | 5.0 | 7.0 | 0.00 | 0.00 | 0.00 | 50 | 1008.4 |
| 20260509201901 | 86 | 315 | 6.0 | 7.0 | 0.00 | 0.00 | 0.00 | 48 | 1008.4 |
| 20260509201356 | 87 | 235 | 4.0 | 6.0 | 0.00 | 0.00 | 0.00 | 50 | 1008.7 |
| 20260509200854 | 87 | 295 | 6.0 | 7.0 | 0.00 | 0.00 | 0.00 | 51 | 1008.6 |
| 20260509200348 | 87 | 284 | 2.0 | 2.0 | 0.00 | 0.00 | 0.00 | 50 | 1008.9 |
| 20260509195845 | 87 | 218 | 4.0 | 6.0 | 0.00 | 0.00 | 0.00 | 51 | 1008.9 |
| 20260509195345 | 86 | 225 | 3.0 | 3.0 | 0.00 | 0.00 | 0.00 | 51 | 1008.8 |
| 20260509194845 | 87 | 228 | 4.0 | 6.0 | 0.00 | 0.00 | 0.00 | 51 | 1009.0 |
| 20260509194341 | 86 | 218 | 4.0 | 6.0 | 0.00 | 0.00 | 0.00 | 51 | 1009.0 |
| 20260509193838 | 84 | 263 | 3.0 | 3.0 | 0.00 | 0.00 | 0.00 | 52 | 1009.2 |
| 20260509193338 | 86 | 326 | 5.0 | 6.0 | 0.00 | 0.00 | 0.00 | 54 | 1009.1 |
| 20260509192834 | 84 | 237 | 3.0 | 3.0 | 0.00 | 0.00 | 0.00 | 56 | 1009.2 |
| 20260509192330 | 84 | 213 | 2.0 | 3.0 | 0.00 | 0.00 | 0.00 | 56 | 1009.3 |
| 20260509191826 | 84 | 315 | 4.0 | 5.0 | 0.00 | 0.00 | 0.00 | 54 | 1009.3 |
| 20260509191322 | 86 | 288 | 1.0 | 2.0 | 0.00 | 0.00 | 0.00 | 52 | 1009.4 |
| 20260509190818 | 87 | 164 | 2.0 | 2.0 | 0.00 | 0.00 | 0.00 | 52 | 1009.4 |
| 20260509190315 | 87 | 266 | 2.0 | 3.0 | 0.00 | 0.00 | 0.00 | 55 | 1009.5 |
| 20260509185812 | 87 | 187 | 1.0 | 1.0 | 0.00 | 0.00 | 0.00 | 52 | 1009.4 |
| 20260509185308 | 87 | 152 | 1.0 | 1.0 | 0.00 | 0.00 | 0.00 | 52 | 1009.6 |
| 20260509184806 | 87 | 43 | 1.0 | 1.0 | 0.00 | 0.00 | 0.00 | 53 | 1009.5 |
| 20260509184303 | 84 | 37 | 1.0 | 2.0 | 0.00 | 0.00 | 0.00 | 54 | 1009.6 |
| 20260509183800 | 83 | 187 | 0.0 | 1.0 | 0.00 | 0.00 | 0.00 | 55 | 1009.8 |
| 20260509183255 | 83 | 288 | 2.0 | 3.0 | 0.00 | 0.00 | 0.00 | 58 | 1009.6 |
| 20260509182750 | 84 | 281 | 3.0 | 3.0 | 0.00 | 0.00 | 0.00 | 58 | 1010.0 |
| 20260509182248 | 83 | 316 | 3.0 | 3.0 | 0.00 | 0.00 | 0.00 | 56 | 1010.1 |
| 20260509181745 | 84 | 210 | 1.0 | 2.0 | 0.00 | 0.00 | 0.00 | 52 | 1009.9 |
| 20260509181243 | 84 | 339 | 1.0 | 1.0 | 0.00 | 0.00 | 0.00 | 51 | 1010.0 |
| 20260509180740 | 83 | 219 | 3.0 | 3.0 | 0.00 | 0.00 | 0.00 | 52 | 1010.2 |
| 20260509180236 | 83 | 328 | 2.0 | 3.0 | 0.00 | 0.00 | 0.00 | 54 | 1010.1 |
| 20260509175732 | 82 | 326 | 0.0 | 0.0 | 0.00 | 0.00 | 0.00 | 59 | 1010.1 |
| 20260509175229 | 82 | 64 | 2.0 | 2.0 | 0.00 | 0.00 | 0.00 | 59 | 1010.3 |
| 20260509174725 | 81 | 217 | 4.0 | 6.0 | 0.00 | 0.00 | 0.00 | 63 | 1010.4 |
| 20260509174220 | 80 | 221 | 2.0 | 3.0 | 0.00 | 0.00 | 0.00 | 65 | 1010.4 |
| 20260509173717 | 80 | 296 | 3.0 | 5.0 | 0.00 | 0.00 | 0.00 | 65 | 1010.6 |
| 20260509173212 | 80 | 215 | 4.0 | 5.0 | 0.00 | 0.00 | 0.00 | 65 | 1010.4 |
| 20260509172709 | 81 | 226 | 3.0 | 3.0 | 0.00 | 0.00 | 0.00 | 65 | 1010.7 |
| 20260509172205 | 81 | 185 | 2.0 | 2.0 | 0.00 | 0.00 | 0.00 | 65 | 1010.6 |
| 20260509171701 | 82 | 150 | 1.0 | 2.0 | 0.00 | 0.00 | 0.00 | 63 | 1010.7 |
| 20260509171157 | 80 | 76 | 2.0 | 2.0 | 0.00 | 0.00 | 0.00 | 64 | 1010.8 |
| 20260509170654 | 79 | 16 | 2.0 | 2.0 | 0.00 | 0.00 | 0.00 | 67 | 1010.8 |
| 20260509170150 | 80 | 285 | 4.0 | 5.0 | 0.00 | 0.00 | 0.00 | 66 | 1011.0 |
| 20260509165648 | 80 | 218 | 3.0 | 3.0 | 0.00 | 0.00 | 0.00 | 67 | 1011.0 |
| 20260509165144 | 79 | 195 | 1.0 | 1.0 | 0.00 | 0.00 | 0.00 | 67 | 1010.8 |
| 20260509164640 | 79 | 193 | 1.0 | 2.0 | 0.00 | 0.00 | 0.00 | 67 | 1010.9 |
| 20260509164136 | 78 | 84 | 0.0 | 0.0 | 0.00 | 0.00 | 0.00 | 67 | 1011.0 |
| 20260509163634 | 78 | 202 | 2.0 | 3.0 | 0.00 | 0.00 | 0.00 | 69 | 1011.2 |
| 20260509163129 | 77 | 44 | 1.0 | 1.0 | 0.00 | 0.00 | 0.00 | 68 | 1011.1 |
| 20260509162627 | 77 | 310 | 3.0 | 3.0 | 0.00 | 0.00 | 0.00 | 70 | 1011.1 |
| 20260509162123 | 77 | 214 | 2.0 | 3.0 | 0.00 | 0.00 | 0.00 | 69 | 1011.0 |
| 20260509161619 | 77 | 263 | 1.0 | 2.0 | 0.00 | 0.00 | 0.00 | 70 | 1011.0 |
| 20260509161114 | 76 | 208 | 3.0 | 3.0 | 0.00 | 0.00 | 0.00 | 70 | 1011.1 |
| 20260509160611 | 76 | 226 | 2.0 | 2.0 | 0.00 | 0.00 | 0.00 | 69 | 1011.1 |
| 20260509160106 | 77 | 257 | 3.0 | 3.0 | 0.00 | 0.00 | 0.00 | 69 | 1011.3 |
| 20260509155602 | 76 | 38 | 1.0 | 2.0 | 0.00 | 0.00 | 0.00 | 69 | 1011.1 |
| 20260509155058 | 75 | 155 | 1.0 | 2.0 | 0.00 | 0.00 | 0.00 | 70 | 1011.0 |
| 20260509154554 | 76 | 75 | 2.0 | 3.0 | 0.00 | 0.00 | 0.00 | 67 | 1011.0 |
| 20260509154052 | 74 | 315 | 1.0 | 1.0 | 0.00 | 0.00 | 0.00 | 72 | 1011.1 |
| 20260509153549 | 73 | 339 | 3.0 | 3.0 | 0.00 | 0.00 | 0.00 | 72 | 1011.1 |
| 20260509153040 | 73 | 179 | 0.0 | 0.0 | 0.00 | 0.00 | 0.00 | 73 | 1011.4 |
| 20260509152536 | 73 | 85 | 0.0 | 0.0 | 0.00 | 0.00 | 0.00 | 73 | 1011.1 |
| 20260509152034 | 73 | 316 | 3.0 | 3.0 | 0.00 | 0.00 | 0.00 | 74 | 1011.1 |
| 20260509151529 | 72 | 160 | 1.0 | 2.0 | 0.00 | 0.00 | 0.00 | 73 | 1011.4 |
| 20260509151027 | 72 | 221 | 2.0 | 2.0 | 0.00 | 0.00 | 0.00 | 74 | 1011.1 |
| 20260509150524 | 72 | 302 | 2.0 | 2.0 | 0.00 | 0.00 | 0.00 | 74 | 1011.0 |
| 20260509150023 | 71 | 57 | 0.0 | 1.0 | 0.00 | 0.00 | 0.00 | 75 | 1011.2 |
| 20260509145518 | 70 | 57 | 0.0 | 0.0 | 0.00 | 0.00 | 0.00 | 76 | 1010.9 |
| 20260509145013 | 70 | 60 | 1.0 | 1.0 | 0.00 | 0.00 | 0.00 | 76 | 1011.0 |
| 20260509144511 | 70 | 348 | 1.0 | 1.0 | 0.00 | 0.00 | 0.00 | 77 | 1011.2 |
| 20260509144008 | 70 | 66 | 1.0 | 2.0 | 0.00 | 0.00 | 0.00 | 77 | 1011.2 |
| 20260509143505 | 71 | 59 | 1.0 | 1.0 | 0.00 | 0.00 | 0.00 | 76 | 1011.2 |
| 20260509143003 | 70 | 23 | 2.0 | 2.0 | 0.00 | 0.00 | 0.00 | 77 | 1011.1 |
| 20260509142458 | 71 | 51 | 1.0 | 1.0 | 0.00 | 0.00 | 0.00 | 77 | 1011.3 |
| 20260509141953 | 70 | 69 | 0.0 | 0.0 | 0.00 | 0.00 | 0.00 | 77 | 1011.3 |
| 20260509141450 | 70 | 49 | 1.0 | 1.0 | 0.00 | 0.00 | 0.00 | 78 | 1011.3 |
| 20260509140947 | 70 | 43 | 1.0 | 1.0 | 0.00 | 0.00 | 0.00 | 78 | 1011.4 |
| 20260509140443 | 69 | 72 | 0.0 | 0.0 | 0.00 | 0.00 | 0.00 | 79 | 1011.8 |
| 20260509135942 | 68 | 328 | 2.0 | 2.0 | 0.00 | 0.00 | 0.00 | 80 | 1011.3 |
| 20260509135438 | 67 | 54 | 1.0 | 1.0 | 0.00 | 0.00 | 0.00 | 81 | 1011.5 |
| 20260509134936 | 67 | 51 | 1.0 | 2.0 | 0.00 | 0.00 | 0.00 | 80 | 1011.3 |
| 20260509134433 | 66 | 57 | 0.0 | 1.0 | 0.00 | 0.00 | 0.00 | 83 | 1011.6 |
| 20260509133931 | 66 | 35 | 1.0 | 1.0 | 0.00 | 0.00 | 0.00 | 83 | 1011.6 |
| 20260509133427 | 66 | 33 | 2.0 | 2.0 | 0.00 | 0.00 | 0.00 | 83 | 1011.6 |
| 20260509132925 | 66 | 47 | 1.0 | 2.0 | 0.00 | 0.00 | 0.00 | 83 | 1011.5 |
| 20260509132423 | 65 | 11 | 2.0 | 2.0 | 0.00 | 0.00 | 0.00 | 83 | 1011.7 |
| 20260509131920 | 65 | 45 | 0.0 | 1.0 | 0.00 | 0.00 | 0.00 | 83 | 1011.9 |
| 20260509131417 | 64 | 62 | 0.0 | 0.0 | 0.00 | 0.00 | 0.00 | 83 | 1011.8 |
| 20260509130914 | 64 | 40 | 0.0 | 1.0 | 0.00 | 0.00 | 0.00 | 85 | 1011.5 |
| 20260509130409 | 64 | 68 | 0.0 | 0.0 | 0.00 | 0.00 | 0.00 | 84 | 1011.5 |
| 20260509125906 | 64 | 80 | 1.0 | 2.0 | 0.00 | 0.00 | 0.00 | 85 | 1011.3 |
| 20260509125402 | 63 | 62 | 0.0 | 0.0 | 0.00 | 0.00 | 0.00 | 86 | 1011.3 |
| 20260509124858 | 63 | 70 | 1.0 | 1.0 | 0.00 | 0.00 | 0.00 | 86 | 1011.3 |
| 20260509124356 | 62 | 88 | 1.0 | 2.0 | 0.00 | 0.00 | 0.00 | 86 | 1011.1 |
| 20260509123854 | 62 | 79 | 3.0 | 3.0 | 0.00 | 0.00 | 0.00 | 87 | 1011.0 |
| 20260509123351 | 62 | 76 | 3.0 | 3.0 | 0.00 | 0.00 | 0.00 | 88 | 1011.0 |
| 20260509122846 | 61 | 86 | 0.0 | 1.0 | 0.00 | 0.00 | 0.00 | 88 | 1011.0 |
| 20260509122343 | 61 | 81 | 1.0 | 1.0 | 0.00 | 0.00 | 0.00 | 88 | 1010.7 |
| 20260509121840 | 61 | 71 | 3.0 | 3.0 | 0.00 | 0.00 | 0.00 | 88 | 1010.6 |
| 20260509121337 | 61 | 95 | 1.0 | 1.0 | 0.00 | 0.00 | 0.00 | 89 | 1010.9 |
| 20260509120835 | 61 | 88 | 1.0 | 2.0 | 0.00 | 0.00 | 0.00 | 89 | 1010.6 |
| 20260509120333 | 61 | 77 | 2.0 | 2.0 | 0.00 | 0.00 | 0.00 | 89 | 1010.4 |
| 20260509115831 | 60 | 61 | 4.0 | 5.0 | 0.00 | 0.00 | 0.00 | 90 | 1010.2 |
| 20260509115328 | 61 | 79 | 1.0 | 2.0 | 0.00 | 0.00 | 0.00 | 90 | 1010.0 |
| 20260509114825 | 61 | 72 | 3.0 | 3.0 | 0.00 | 0.00 | 0.00 | 90 | 1009.9 |
| 20260509114324 | 61 | 84 | 1.0 | 1.0 | 0.00 | 0.00 | 0.00 | 90 | 1009.9 |
| 20260509113823 | 62 | 86 | 2.0 | 2.0 | 0.00 | 0.00 | 0.00 | 89 | 1009.6 |
| 20260509113319 | 62 | 80 | 1.0 | 1.0 | 0.00 | 0.00 | 0.00 | 88 | 1009.5 |
| 20260509112816 | 63 | 63 | 0.0 | 0.0 | 0.00 | 0.00 | 0.00 | 87 | 1009.3 |
| 20260509112314 | 64 | 23 | 1.0 | 1.0 | 0.00 | 0.00 | 0.00 | 87 | 1009.4 |
| 20260509111810 | 64 | 346 | 2.0 | 2.0 | 0.00 | 0.00 | 0.00 | 87 | 1009.2 |
| 20260509111307 | 64 | 44 | 1.0 | 1.0 | 0.00 | 0.00 | 0.00 | 87 | 1009.2 |
| 20260509110805 | 64 | 43 | 0.0 | 0.0 | 0.00 | 0.00 | 0.00 | 86 | 1009.0 |
| 20260509110301 | 64 | 25 | 0.0 | 0.0 | 0.00 | 0.00 | 0.00 | 85 | 1009.0 |
| 20260509105759 | 64 | 29 | 1.0 | 1.0 | 0.00 | 0.00 | 0.00 | 85 | 1009.0 |
| 20260509105257 | 64 | 31 | 1.0 | 2.0 | 0.00 | 0.00 | 0.00 | 85 | 1009.0 |
| 20260509104753 | 64 | 48 | 0.0 | 1.0 | 0.00 | 0.00 | 0.00 | 85 | 1009.1 |
| 20260509104250 | 64 | 37 | 0.0 | 1.0 | 0.00 | 0.00 | 0.00 | 86 | 1009.4 |
| 20260509103749 | 63 | 26 | 2.0 | 2.0 | 0.00 | 0.00 | 0.00 | 87 | 1009.5 |
| 20260509103245 | 63 | 53 | 2.0 | 2.0 | 0.00 | 0.00 | 0.00 | 87 | 1009.8 |
| 20260509102744 | 64 | 73 | 1.0 | 1.0 | 0.00 | 0.00 | 0.00 | 87 | 1009.4 |
| 20260509102240 | 64 | 44 | 1.0 | 1.0 | 0.00 | 0.00 | 0.00 | 86 | 1009.4 |
| 20260509101737 | 64 | 154 | 0.0 | 1.0 | 0.00 | 0.00 | 0.00 | 86 | 1009.3 |
| 20260509101233 | 64 | 217 | 3.0 | 3.0 | 0.00 | 0.00 | 0.00 | 85 | 1009.2 |
| 20260509100731 | 64 | 200 | 2.0 | 2.0 | 0.00 | 0.00 | 0.00 | 84 | 1009.3 |
| 20260509100228 | 64 | 166 | 0.0 | 0.0 | 0.00 | 0.00 | 0.00 | 85 | 1009.3 |
| 20260509095724 | 64 | 175 | 0.0 | 0.0 | 0.00 | 0.00 | 0.00 | 85 | 1009.5 |
| 20260509095222 | 64 | 182 | 2.0 | 2.0 | 0.00 | 0.00 | 0.00 | 85 | 1009.4 |
| 20260509094718 | 64 | 209 | 4.0 | 5.0 | 0.00 | 0.00 | 0.00 | 85 | 1009.2 |